Regional Weather Roundup
Issued by NWS

Home | Current Version | Previous Version | Text Only | Print | Product List | Glossary On
Versions: 1 2 3 4 5 6 7 8 9 10 11 12 13 14 15 16 17 18 19 20 21 22 23 24 25 26 27 28 29 30 31 32 33 34 35 36 37 38 39 40 41 42 43 44 45 46 47 48 49 50
000
ASUS46 KPQR 290810
RWROR

OREGON REGIONAL WEATHER ROUNDUP
NATIONAL WEATHER SERVICE PORTLAND OR
100 AM PDT TUE JUL 29 2014

NOTE: "FAIR" INDICATES FEW OR NO CLOUDS BELOW 12,000 FEET WITH
NO SIGNIFICANT WEATHER AND/OR OBSTRUCTIONS TO VISIBILITY.

ORZ001>013-290900-
NORTHWEST OREGON


CITY           SKY/WX    TMP DP  RH WIND       PRES   REMARKS
ASTORIA        MOCLDY    57  55  93 W5        30.13S
NEWPORT        CLOUDY    52  52 100 N5        30.14S
PORTLAND       CLEAR     71  55  56 NW5       30.05R
VANCOUVER WA   CLEAR     71  53  52 NW3       30.04R
SCAPPOOSE      CLEAR     69  51  52 N8        30.04R
HILLSBORO      CLEAR     68  50  52 W7        30.05R
AURORA         CLEAR     72  54  53 NE7       30.06R
MCMINNVILLE    CLEAR     67  57  70 W6        30.05S
SALEM          CLEAR     70  56  61 N6        30.04R
CORVALLIS      CLEAR     64  55  72 NW12      30.06R
EUGENE         CLEAR     66  57  72 CALM      30.05R
$$

ORZ021-028-290900-
SOUTHWEST OREGON


CITY           SKY/WX    TMP DP  RH WIND       PRES   REMARKS
NORTH BEND     CLOUDY    55  55 100 N12G17    30.14S
BROOKINGS      FOG       54  54 100 CALM      30.09S VSB 1/4
ROSEBURG       CLEAR     74  56  53 N3        30.05R
SEXTON SUMMIT  CLEAR     67  54  63 N10       30.19S
MEDFORD        PTCLDY    81  56  42 CALM      30.03R
$$

ORZ009-041-290900-
COLUMBIA GORGE


CITY           SKY/WX    TMP DP  RH WIND       PRES   REMARKS
TROUTDALE      CLEAR     69  57  65 CALM      30.04R
THE DALLES     CLEAR     78  58  49 VRB6      29.96R
$$

ORZ029>031-042>050-061>064-290900-
EASTERN OREGON


CITY           SKY/WX    TMP DP  RH WIND       PRES   REMARKS
REDMOND        CLEAR     70  50  49 NW6       30.13S
BEND           SUNNY     68  50  52 W5        30.18S
KLAMATH FALLS  CLEAR     69  51  52 NW8       30.19R
LAKEVIEW       PTCLDY    73  36  25 N9        30.23S
HERMISTON      CLEAR     70  47  43 S3        29.95R
PENDLETON      CLEAR     75  42  30 SE10      30.00S
JOHN DAY       SUNNY     71  43  36 E9        30.17S
MEACHAM        PTCLDY    54  48  80 CALM      30.18S
LA GRANDE      CLEAR     72  39  30 N12       30.09R
BAKER CITY     CLEAR     62  47  57 SW5       30.13S
BURNS          CLEAR     64  41  42 W9        30.16F
ROME             N/A     71  42  35 NE7       30.12R
ONTARIO        MOCLDY    72  55  55 NE5       30.02S
$$


USA.gov is the U.S. government's official web portal to all federal, state and local government web resources and services.